Wind_Speed
6 4 3 5 1 3 6 5 6 6 5 6 5 5 7 7 3 2 3 6 5 3 3 4 3 3 2 4 2 1 1 1 2 3 4 5 6 6 6 6 6 6 6 6 5 5 6 7 7
6 7 4 7 2 5 6 7 5 3 4 5 4 6 8 7 5 3 4 4 6 6 8 7 5 2 2 1 1 1 0 0 0 1 2 3 4 4 4 4 4 4 4 4 4 4 5 5 6
5 4 5 3 5 4 6 6 3 3 4 4 4 6 6 6 5 4 5 5 6 6 6 6 5 3 3 3 2 2 2 2 2 2 2 3 3 3 3 4 4 4 3 3 2 3 3 4 4
7 6 4 2 4 4 5 5 3 2 4 6 5 4 6 8 7 7 7 8 6 6 5 3 5 5 5 6 6 5 3 3 3 3 3 3 4 4 4 4 4 4 5 5 5 4 4 4 4
9 8 5 4 7 5 4 4 2 1 4 7 6 7 7 7 7 7 7 7 6 6 7 6 5 6 6 7 7 6 6 6 6 5 3 3 4 5 6 6 6 6 6 6 7 7 7 6 6
9 9 7 8 9 5 5 4 3 4 5 7 9 10 10 7 6 7 5 5 5 6 7 6 5 4 4 4 5 8 7 6 6 5 5 5 6 5 5 5 5 6 7 9 9 9 10 10 9
9 9 7 8 8 7 6 5 2 2 5 7 10 11 10 11 8 8 8 7 5 5 6 5 4 2 3 5 6 7 7 6 7 6 7 8 8 6 5 5 5 6 7 7 8 11 12 12 12
9 8 9 10 10 8 6 5 5 5 6 9 10 11 13 13 11 10 10 9 4 5 5 4 2 4 5 4 7 10 9 10 10 10 10 9 11 9 9 10 10 12 11 10 9 9 9 10 11
10 8 8 12 12 10 8 5 6 8 9 11 12 13 14 13 12 11 12 10 7 5 5 4 4 6 6 7 9 11 12 14 14 16 14 13 13 15 14 15 15 17 17 14 13 13 11 11 11
12 11 7 8 11 10 9 8 8 11 12 14 14 15 15 14 12 12 12 10 9 9 6 5 9 11 11 11 13 13 14 15 16 15 14 13 14 14 16 18 18 18 18 17 18 17 18 17 18
14 12 8 7 10 10 9 10 12 13 14 16 17 17 15 13 12 13 12 11 11 11 11 10 12 14 15 17 18 17 15 15 13 13 13 13 13 13 13 14 15 15 16 16 17 17 18 18 21
15 13 9 7 8 9 11 12 14 16 17 19 20 17 13 12 13 13 12 12 11 12 12 14 15 16 18 19 18 17 14 12 12 12 11 11 12 13 14 15 16 17 18 18 19 19 20 20 20
16 15 12 10 10 11 13 15 17 18 20 20 17 13 11 12 13 11 10 11 12 14 15 16 17 18 18 19 16 13 10 10 10 11 12 13 14 14 15 16 17 18 19 20 21 22 22 22 22
18 15 14 13 11 12 14 18 19 21 22 17 13 10 11 14 13 10 10 11 13 14 15 16 17 18 17 14 11 9 9 9 10 11 11 12 13 14 15 17 19 21 22 23 25 25 26 28 28
13 14 15 15 13 13 16 21 21 17 15 12 11 13 14 14 11 10 11 11 13 15 15 16 17 15 12 10 9 9 9 10 11 11 13 14 15 16 17 19 20 22 24 26 27 29 30 30 31
21 17 15 13 15 18 18 24 21 16 12 13 15 16 16 13 11 10 11 12 13 14 16 15 13 11 9 9 8 9 9 11 12 14 15 16 17 19 22 24 26 27 29 30 30 31 31 33 34
15 16 16 16 18 21 23 25 19 15 18 19 18 18 19 16 11 10 11 13 14 15 14 12 11 10 9 8 8 9 10 13 14 15 17 18 20 22 25 28 30 32 34 36 35 35 36 35 36
17 16 17 19 21 22 23 25 20 21 23 23 23 21 21 17 13 12 14 14 13 13 12 12 11 9 9 9 9 11 13 15 17 18 19 21 23 26 29 32 34 35 35 36 36 35 35 36 37
16 18 20 19 18 19 22 26 22 21 26 28 26 24 21 18 17 15 14 14 13 12 11 11 10 10 10 11 12 14 16 18 19 22 24 26 28 31 33 35 37 36 35 35 36 36 36 36 39
19 20 21 20 19 17 20 26 24 23 17 17 19 22 22 21 20 14 13 12 12 10 9 10 10 11 12 14 15 17 18 20 22 25 28 31 33 36 39 40 39 39 38 38 39 42 43 43 42
18 18 15 14 16 18 22 25 12 19 20 14 16 18 17 20 18 13 11 11 11 8 8 8 9 11 14 17 21 23 24 23 25 29 33 35 38 41 43 44 44 43 43 43 43 44 47 49 46
14 14 13 13 14 8 15 8 25 10 9 8 7 6 12 15 16 16 14 10 9 10 8 7 8 11 16 19 22 25 26 27 31 34 36 39 43 45 46 48 48 47 48 48 48 48 48 49 50
11 11 12 13 14 14 15 5 3 3 3 3 3 1 1 6 14 14 11 12 13 11 9 8 12 15 19 21 23 25 28 31 34 37 40 44 47 50 51 51 51 52 52 52 50 49 48 49 51
10 9 11 14 11 3 4 4 2 2 4 3 2 1 2 7 11 14 15 14 12 10 10 13 16 19 22 23 25 28 30 33 38 42 46 49 51 51 51 53 54 55 52 50 48 48 49 49 50
10 9 4 2 0 3 2 5 4 4 3 2 2 4 6 8 9 11 12 13 12 13 15 18 20 23 25 26 29 32 35 39 43 46 50 53 53 53 55 56 55 51 49 48 48 49 50 50 52
7 8 4 3 2 2 4 5 2 2 1 3 5 7 8 5 6 7 9 10 12 16 20 22 23 24 27 30 33 37 40 44 48 51 54 54 55 57 57 55 52 50 49 49 50 51 52 54 54
7 8 7 3 2 2 4 3 4 3 4 5 6 6 6 6 6 9 11 15 20 23 22 22 24 27 30 34 37 40 44 49 52 54 53 54 56 56 54 53 52 52 53 54 56 56 55 55 55
9 5 3 4 2 3 4 5 6 10 9 7 7 8 7 7 9 13 17 18 20 20 22 24 27 31 34 36 39 44 50 50 50 51 52 53 52 52 53 53 53 55 56 57 57 57 56 56 53
10 11 8 5 4 3 2 3 8 11 11 11 11 11 13 16 19 17 15 16 17 19 24 26 29 33 37 40 45 49 46 46 47 49 49 50 51 52 52 54 55 55 56 56 56 54 52 49 47
9 9 9 6 5 6 2 6 10 9 10 11 13 16 19 23 19 13 14 18 20 22 28 34 36 38 42 46 44 42 42 44 45 47 49 50 50 51 53 53 54 54 54 53 51 48 46 45 44
Wind_Direction
190 175 204 190 71 90 107 109 115 99 76 68 58 34 7 14 14 75 29 43 37 23 32 31 33 73 154 230 287 155 131 95 65 52 53 53 50 47 51 55 57 54 51 49 54 49 42 45 43
185 201 205 219 264 147 121 129 125 112 82 58 54 11 6 16 28 42 25 32 37 48 50 44 38 71 358 352 315 337 233 247 324 11 25 34 37 35 32 30 37 39 40 35 35 32 34 33 31
188 159 194 217 189 158 155 150 123 101 54 24 9 348 354 358 356 344 351 10 17 30 45 46 45 45 4 358 346 358 334 311 302 311 337 348 358 357 1 1 359 4 353 348 348 348 358 10 6
188 179 194 202 205 186 160 153 131 62 25 353 345 346 336 342 340 353 357 355 347 7 7 30 51 51 52 55 55 48 17 347 330 311 304 306 305 306 312 317 324 329 330 326 318 310 315 316 325
192 192 195 195 197 190 185 173 188 3 344 344 347 345 341 336 335 347 349 352 5 1 25 50 77 66 62 60 55 42 37 35 37 35 17 342 324 315 302 299 296 294 296 304 307 308 305 301 297
192 198 202 210 195 195 200 200 262 318 336 329 331 335 339 333 326 333 329 325 345 353 29 54 81 75 60 40 42 33 33 28 26 18 14 7 358 353 354 356 335 312 299 290 287 291 293 294 295
204 203 205 211 204 200 223 231 232 321 328 328 327 327 332 329 320 320 315 318 334 1 35 78 72 51 6 352 339 336 342 345 344 340 344 335 336 2 359 355 343 343 337 325 307 287 279 279 281
206 203 208 205 224 219 224 235 256 295 311 318 322 322 322 320 314 313 307 305 321 354 24 58 12 348 347 333 338 327 314 308 313 318 315 315 307 297 280 297 300 298 311 302 297 298 290 285 286
206 213 212 218 222 223 228 231 264 284 294 306 311 312 311 310 309 307 303 305 313 322 327 343 343 317 308 295 307 302 303 297 290 290 296 297 296 299 296 296 299 298 301 297 288 280 284 279 286
207 223 236 227 223 229 237 253 266 280 294 302 303 305 306 304 305 302 301 310 309 301 292 317 321 311 307 308 314 312 296 294 293 294 298 301 298 297 298 301 299 297 301 297 287 278 275 274 278
211 225 234 231 228 242 235 252 271 282 293 298 300 302 301 300 300 297 294 293 294 285 302 309 298 301 307 316 314 308 300 300 299 301 303 303 302 301 301 301 303 303 304 304 303 299 293 280 272
210 222 230 224 235 247 257 269 281 288 297 298 298 297 295 301 300 295 293 291 297 302 305 303 302 306 310 307 305 304 304 303 304 307 308 309 309 310 310 310 310 310 309 308 306 305 303 298 295
210 218 231 236 249 265 277 285 287 295 297 297 293 290 297 306 301 290 286 290 295 296 296 294 297 300 298 300 299 298 299 302 307 310 313 316 318 320 320 319 318 317 315 314 312 310 307 303 299
209 213 227 239 250 266 277 287 294 302 296 290 286 284 297 311 304 292 283 279 278 280 282 286 287 289 294 293 291 294 301 305 306 309 312 316 317 317 317 317 317 316 315 314 311 308 305 302 300
208 212 226 235 252 265 283 284 298 301 298 292 277 287 294 304 297 281 274 272 273 276 278 278 281 283 280 279 284 293 298 304 309 312 313 312 312 313 313 313 313 312 310 308 304 302 299 295 292
221 223 231 245 265 280 286 291 299 294 293 296 289 285 286 291 287 281 266 268 271 274 276 278 275 270 270 273 281 288 300 306 309 310 311 313 315 315 315 314 312 309 306 303 300 297 295 293 290
217 232 245 257 269 279 282 289 292 284 289 293 290 281 279 280 282 284 261 262 267 276 271 264 261 259 260 266 276 290 299 303 304 305 307 309 310 309 309 310 311 311 309 307 304 302 298 294 291
228 238 247 259 273 275 278 283 286 288 287 289 285 278 272 273 276 274 266 267 275 274 263 256 249 251 257 267 277 291 295 298 299 300 301 302 303 307 311 314 314 312 309 307 305 303 301 299 295
233 253 258 267 272 273 277 282 289 286 287 287 283 277 271 267 263 264 263 264 276 269 256 241 247 252 259 266 275 284 292 296 297 298 300 303 306 310 313 313 312 310 307 304 302 300 298 297 296
245 249 260 270 272 276 283 288 297 295 291 287 276 268 262 255 257 256 253 255 267 257 244 246 246 249 259 266 275 285 292 297 298 299 303 306 309 310 311 310 310 308 306 304 302 301 300 297 297
244 250 254 263 280 288 295 299 297 303 299 293 277 263 258 250 237 226 234 245 249 227 230 234 241 248 260 269 275 281 287 295 300 303 306 308 309 309 309 309 309 308 306 305 303 301 300 299 298
238 250 262 274 286 287 298 288 305 303 315 313 298 285 253 247 224 209 218 236 214 211 216 231 249 260 266 274 283 284 285 292 298 302 304 305 307 308 308 309 310 310 308 307 305 303 300 298 298
248 259 268 278 284 293 289 265 286 347 82 50 24 354 253 199 187 187 203 209 209 215 227 252 266 272 276 282 293 298 295 292 296 300 303 306 307 308 309 309 310 310 309 307 305 303 300 299 297
247 264 282 284 279 259 271 229 246 12 331 357 2 316 195 173 178 188 198 203 208 226 245 259 268 276 284 292 297 298 297 297 299 301 304 306 305 306 308 309 309 309 308 306 304 301 299 297 295
251 266 292 308 6 224 270 247 269 334 352 2 106 133 149 156 175 196 200 198 220 245 261 271 277 281 289 295 296 299 300 300 300 302 305 305 305 307 308 308 308 307 306 305 303 302 300 298 295
235 226 216 242 221 283 256 247 209 309 285 150 167 163 167 202 212 210 210 228 258 275 276 273 276 284 289 290 293 297 298 300 300 302 304 304 306 306 307 307 307 307 306 305 303 300 299 297 295
219 214 228 215 278 279 248 253 235 209 183 177 186 194 211 215 222 228 244 271 279 272 268 273 278 280 282 285 290 295 298 298 298 300 302 304 304 305 305 307 307 308 306 305 304 302 300 297 296
221 209 191 214 204 252 265 252 193 193 203 212 223 228 242 258 278 293 295 276 270 274 278 283 286 284 284 286 290 294 297 297 300 302 302 303 304 305 306 307 307 307 305 304 303 302 300 298 296
231 230 231 218 211 207 283 248 203 218 229 238 245 259 280 298 311 308 282 279 286 288 293 293 289 285 284 286 290 296 299 301 301 301 303 304 305 306 307 306 306 306 305 305 303 302 300 299 297
233 236 225 219 220 215 208 265 249 245 254 259 274 285 296 306 305 289 287 288 291 297 303 300 293 288 287 292 296 300 301 302 303 304 304 305 305 305 307 307 307 308 306 305 303 302 301 299 297
Height
3197 3198 3199 3200 3204 3201 3201 3203 3203 3203 3204 3204 3203 3203 3203 3201 3201 3205 3201 3199 3199 3199 3198 3198 3197 3197 3197 3197 3196 3196 3196 3195 3195 3195 3194 3194 3194 3193 3193 3192 3191 3191 3191 3190 3189 3189 3189 3188 3187
3198 3199 3199 3200 3202 3201 3203 3203 3204 3204 3204 3204 3204 3204 3203 3202 3201 3201 3200 3200 3200 3199 3198 3197 3197 3197 3196 3196 3196 3195 3195 3195 3195 3195 3194 3194 3193 3193 3193 3192 3192 3191 3190 3190 3190 3189 3188 3188 3187
3198 3198 3200 3200 3201 3202 3203 3203 3204 3205 3205 3205 3205 3204 3203 3202 3201 3200 3200 3200 3199 3198 3197 3197 3197 3196 3196 3196 3195 3195 3195 3195 3194 3194 3194 3194 3193 3193 3192 3192 3192 3191 3190 3190 3189 3189 3188 3187 3187
3197 3199 3200 3200 3200 3202 3203 3204 3204 3205 3205 3204 3204 3204 3203 3201 3200 3200 3200 3199 3199 3198 3197 3197 3196 3196 3196 3195 3195 3195 3194 3194 3194 3193 3193 3192 3192 3192 3191 3191 3191 3190 3189 3189 3189 3188 3187 3187 3186
3196 3197 3198 3199 3200 3202 3202 3203 3204 3204 3204 3204 3203 3204 3203 3201 3200 3200 3200 3199 3198 3197 3196 3195 3195 3195 3196 3195 3195 3194 3194 3193 3193 3192 3192 3191 3191 3190 3190 3190 3189 3189 3188 3187 3187 3187 3186 3186 3185
3195 3196 3197 3198 3199 3201 3201 3202 3203 3203 3203 3203 3202 3202 3202 3201 3200 3200 3199 3198 3197 3196 3196 3195 3195 3195 3195 3194 3194 3194 3193 3193 3192 3192 3191 3190 3190 3189 3188 3188 3187 3187 3187 3186 3185 3185 3184 3184 3184
3194 3195 3196 3196 3198 3199 3200 3201 3202 3202 3202 3202 3201 3201 3201 3199 3199 3198 3198 3197 3197 3196 3195 3195 3195 3195 3194 3194 3194 3193 3193 3192 3192 3190 3190 3189 3188 3188 3187 3187 3186 3186 3185 3184 3184 3183 3182 3181 3180
3192 3194 3194 3195 3196 3197 3198 3199 3200 3201 3201 3201 3200 3199 3199 3198 3197 3196 3196 3195 3195 3195 3195 3195 3194 3194 3194 3193 3192 3192 3191 3191 3190 3188 3188 3187 3186 3186 3185 3185 3184 3184 3183 3182 3182 3181 3180 3179 3178
3191 3192 3193 3194 3195 3196 3197 3198 3199 3199 3199 3199 3198 3198 3197 3196 3195 3194 3193 3193 3193 3193 3193 3193 3193 3192 3192 3191 3191 3191 3188 3188 3187 3186 3186 3185 3184 3183 3182 3181 3181 3180 3180 3180 3179 3179 3178 3177 3176
3189 3190 3191 3193 3194 3195 3195 3196 3196 3197 3196 3196 3196 3195 3194 3193 3193 3192 3191 3191 3191 3191 3190 3191 3190 3190 3189 3189 3188 3187 3186 3185 3184 3183 3183 3182 3181 3181 3180 3178 3178 3177 3176 3175 3175 3175 3174 3174 3173
3187 3188 3189 3191 3192 3193 3194 3194 3195 3194 3194 3193 3192 3192 3191 3191 3190 3190 3189 3189 3189 3189 3187 3187 3188 3187 3186 3186 3185 3184 3183 3182 3181 3180 3180 3179 3178 3177 3176 3175 3174 3173 3172 3171 3171 3170 3170 3170 3169
3184 3186 3187 3189 3190 3191 3192 3192 3192 3191 3191 3190 3188 3188 3188 3188 3187 3186 3186 3186 3186 3185 3185 3185 3184 3184 3183 3183 3182 3180 3180 3179 3178 3177 3177 3176 3175 3174 3173 3172 3171 3170 3169 3168 3167 3166 3165 3164 3164
3181 3184 3185 3187 3188 3189 3189 3189 3188 3188 3187 3186 3185 3184 3184 3184 3184 3183 3183 3182 3182 3182 3182 3182 3181 3180 3180 3179 3178 3177 3177 3177 3176 3175 3174 3173 3172 3171 3169 3168 3167 3166 3165 3164 3163 3162 3161 3160 3159
3179 3181 3183 3184 3185 3186 3186 3186 3185 3185 3182 3181 3181 3181 3181 3180 3180 3180 3180 3180 3180 3180 3179 3179 3178 3177 3176 3175 3175 3175 3174 3174 3173 3172 3171 3170 3169 3168 3167 3165 3164 3162 3161 3159 3158 3156 3155 3153 3153
3176 3178 3180 3181 3182 3183 3183 3182 3182 3181 3179 3178 3178 3177 3177 3177 3177 3177 3177 3177 3176 3176 3176 3175 3174 3173 3173 3173 3173 3172 3172 3171 3170 3169 3168 3167 3165 3164 3163 3162 3160 3158 3156 3154 3152 3150 3148 3147 3145
3174 3175 3177 3178 3179 3179 3180 3178 3178 3177 3176 3176 3175 3174 3174 3174 3174 3174 3174 3173 3173 3172 3171 3170 3170 3170 3170 3170 3170 3170 3169 3168 3166 3165 3164 3162 3161 3160 3158 3156 3154 3151 3149 3147 3145 3144 3142 3139 3136
3170 3171 3173 3176 3176 3176 3176 3174 3174 3173 3173 3172 3171 3170 3169 3170 3170 3170 3170 3170 3169 3168 3167 3167 3167 3167 3167 3167 3167 3166 3166 3164 3163 3161 3160 3159 3157 3155 3153 3150 3148 3145 3142 3139 3137 3134 3132 3130 3128
3166 3169 3171 3172 3173 3172 3171 3170 3170 3169 3168 3167 3166 3165 3165 3165 3166 3166 3166 3165 3165 3164 3163 3163 3163 3164 3164 3164 3164 3163 3162 3161 3159 3157 3156 3154 3152 3150 3148 3145 3142 3139 3135 3131 3128 3126 3123 3120 3118
3165 3166 3169 3168 3168 3167 3167 3165 3166 3165 3162 3160 3159 3158 3159 3161 3161 3162 3162 3162 3161 3160 3160 3160 3161 3161 3161 3161 3161 3160 3159 3157 3155 3153 3151 3149 3146 3144 3141 3139 3135 3131 3128 3125 3120 3117 3115 3113 3107
3162 3164 3164 3164 3164 3164 3162 3160 3160 3157 3156 3154 3152 3151 3152 3154 3156 3158 3158 3159 3158 3157 3157 3158 3158 3158 3158 3158 3157 3156 3155 3153 3150 3148 3145 3143 3140 3137 3133 3130 3127 3123 3120 3116 3112 3107 3103 3102 3099
3159 3160 3161 3161 3160 3159 3157 3154 3154 3153 3149 3146 3145 3145 3146 3147 3150 3153 3155 3156 3155 3155 3155 3155 3156 3156 3155 3154 3153 3152 3151 3148 3145 3142 3139 3136 3133 3129 3125 3121 3117 3113 3109 3106 3103 3098 3093 3088 3088
3156 3157 3157 3157 3157 3157 3155 3152 3149 3147 3146 3143 3142 3141 3141 3142 3145 3148 3151 3153 3153 3153 3153 3153 3153 3152 3151 3150 3149 3147 3145 3143 3139 3136 3134 3130 3125 3120 3115 3110 3106 3102 3097 3093 3089 3086 3082 3077 3073
3154 3154 3155 3154 3154 3153 3151 3152 3145 3145 3145 3143 3141 3140 3139 3139 3141 3145 3149 3150 3150 3151 3151 3151 3150 3148 3147 3145 3144 3142 3139 3135 3132 3129 3125 3121 3116 3110 3105 3100 3095 3090 3085 3081 3076 3072 3068 3065 3060
3151 3152 3152 3150 3149 3150 3148 3149 3145 3144 3143 3142 3141 3140 3139 3139 3141 3143 3144 3146 3147 3148 3147 3146 3145 3143 3142 3140 3138 3135 3132 3128 3124 3119 3115 3110 3105 3101 3096 3090 3085 3079 3074 3069 3065 3060 3056 3052 3048
3148 3150 3150 3149 3148 3147 3147 3147 3143 3142 3142 3141 3140 3139 3139 3139 3139 3140 3141 3143 3143 3143 3142 3141 3140 3138 3136 3134 3131 3127 3123 3119 3114 3109 3104 3099 3094 3089 3084 3078 3072 3067 3062 3057 3052 3047 3042 3039 3034
3145 3147 3147 3147 3147 3146 3145 3142 3141 3141 3140 3140 3139 3139 3139 3139 3139 3139 3140 3140 3140 3139 3138 3136 3134 3132 3130 3127 3124 3119 3114 3109 3104 3099 3094 3088 3082 3076 3070 3065 3060 3055 3050 3045 3040 3034 3029 3024 3019
3143 3144 3145 3145 3145 3145 3142 3141 3141 3139 3139 3138 3138 3138 3138 3138 3139 3139 3139 3139 3137 3135 3133 3131 3129 3127 3123 3119 3115 3110 3105 3100 3095 3089 3083 3077 3071 3064 3058 3052 3047 3042 3036 3029 3023 3018 3013 3007 3002
3141 3143 3143 3144 3144 3143 3139 3137 3136 3137 3137 3137 3137 3137 3137 3137 3137 3137 3135 3133 3132 3130 3128 3126 3123 3119 3115 3111 3107 3102 3096 3090 3084 3078 3072 3066 3059 3053 3047 3041 3034 3028 3022 3015 3009 3002 2997 2991 2986
3139 3139 3140 3142 3142 3140 3139 3136 3135 3135 3136 3135 3135 3135 3134 3133 3132 3131 3129 3128 3126 3124 3122 3119 3115 3111 3107 3102 3097 3092 3086 3079 3073 3067 3061 3054 3047 3041 3035 3029 3022 3015 3008 3001 2994 2988 2982 2977 2972
3136 3136 3138 3138 3139 3138 3138 3135 3132 3133 3134 3133 3133 3131 3130 3128 3127 3125 3124 3122 3120 3117 3114 3111 3106 3102 3097 3092 3086 3080 3074 3068 3062 3056 3049 3043 3036 3030 3023 3016 3008 3001 2994 2986 2979 2974 2968 2963 2959